SL-8 R/B

Satellite information

Favourite Embed

Satellite Type and Status

ROCKET BODYIN ORBIT

Key statistics

Satellite SL-8 R/B at a glance.

Uptime

15389

Days in orbit

Revolutions

≈ 13.8

Per day

Orbit

LEO

Low Earth Orbit

Inclination

82.9

Latest

Satellite identification and parameters

Extended collection of information and parameters for SL-8 R/B.

Object identification

Identified? True

Debris? False

Object name: SL-8 R/B

International designator: 1983-108B

Object number (NORAD): 14451

Object ID (CCSDS): 14451

Country: COMMONWEALTH OF INDEPENDENT STATES (CIS)

Current information (Y/N): Y

RCS size: LARGE

Orbital parameters

Period: 104.473 minutes

Inclination: 82.9292 deg

SMA: 7347.903 km

Apoapsis: 993.948 km

Periapsis: 945.588 km

RAAN: 18.0877 deg

Eccentricy: 0.00329071

Argument of periapsis: 36.067 deg

Mean anomaly: 324.2699 deg

Mean motion: 13.78344073 rev/day

Mean motion (dot): 0.00000139 rev/day2

B* drag term: 0.00012229835 1/REarth

Two-line elements (TLE)

Creation date: Dec. 12, 2025, 10:14 a.m.

Reference frame: TEME

Reference center: EARTH

Epoch: Dec. 12, 2025, 4:21 a.m. UTC

TLE line 0: 0 SL-8 R/B

TLE line 1: 1 14451U 83108B 25346.18162233 .00000139 00000-0 12230-3 0 9995

TLE line 2: 2 14451 82.9292 18.0877 0032907 36.0670 324.2699 13.78344073117917

Live tracking on map

Real-time ground track for satellite SL-8 R/B.

In-orbit conjunctions

A list of the most updated potential collisions computed for object SL-8 R/B.

Target Orbit TCA Probability of collision Miss distance Type
NIMBUS 2 DEB SSO 2025-12-14 16:09:13 0.0001336127 542.0 (m) DEBRIS
COSMOS 2251 DEB LEO 2025-04-18 20:25:21 0.0002201123 94.0 (m) DEBRIS
IRIDIUM 33 DEB LEO 2025-03-11 11:07:20 0.000149247 277.0 (m) DEBRIS
METEOR 2-20 DEB LEO 2025-02-26 01:26:58 0.0001508942 660.0 (m) DEBRIS

Associated space launch

Civilian navigation satellite equivalent to the purely military Parus

SL-8 R/B was lifted into orbit during the mission ‘Kosmos-3M | Tsikada 10’, on board a Kosmos-3M space rocket.

The launch took place on Oct. 26, 1983, 5:20 p.m. from 132/1 (132L).

For more information about the launch, click the button.

Launch to space Kosmos-3M | Tsikada 10
Kosmos-3M | Tsikada 10

Agency: N/A

Status: Launch Successful

Launch date: Oct. 26, 1983, 5:20 p.m. UTC

Rocket: Kosmos-3M

Launch pad: 132/1 (132L)

Location: Plesetsk Cosmodrome, Russian Federation

...

Latest news about this satellite

There are no fresh news available about this satellite. Check back as we update our databases every day.


Newsletter sign-up

Weekly statistics, charts and insights to help you stay on top of the space industry.